Weather Roundup
Issued by NWS Chicago, IL

Home | Current Version | Previous Version | Graphics & Text | Print | Product List | Glossary On
Versions: 1 2 3 4 5 6 7 8 9 10 11 12 13 14 15 16 17 18 19 20 21 22 23 24 25 26 27 28 29 30 31 32 33 34 35 36 37 38 39 40 41 42 43 44 45 46 47 48 49 50
000
NZUS59 KLOT 050512
HRRLOT

CHICAGO AREA WEATHER ROUNDUP
NATIONAL WEATHER SERVICE CHICAGO/ROMEOVILLE IL
1200 AM CDT WED AUG 05 2015

NOTE: "FAIR" INDICATES FEW OR NO CLOUDS BELOW 12,000 FEET WITH NO
SIGNIFICANT WEATHER AND/OR OBSTRUCTIONS TO VISIBILITY.

* THESE STATIONS ARE NOT UNDER NWS QUALITY CONTROL. THEY ALSO MAY NOT
  REPORT WEATHER SUCH AS PRECIPITATION OR FOG.

ILZ005-006-012>014-019>023-050600-
NORTHEAST ILLINOIS

CITY           SKY/WX    TMP DP  RH WIND       PRES   REMARKS
OHARE          PTCLDY    67  58  72 CALM      30.04R
MIDWAY         PTCLDY    73  60  63 SE3       30.03S
AURORA         PTCLDY    60  56  86 CALM      30.05S
LANSING*       CLEAR     62  58  84 CALM      30.04S
JOLIET*        CLEAR     61  58  90 CALM      30.04S
WAUKEGAN       CLEAR     61  59  93 CALM      30.03S
DUPAGE AIRPORT PTCLDY    63  57  81 CALM      30.04R
WHEELING       PTCLDY    66  59  78 CALM      30.05R
KANKAKEE*      CLEAR     63  60  89 N3        30.05R
MORRIS*        CLEAR     64  59  82 CALM      30.03S
LEWIS AIRPORT* CLEAR     65  55  68 NE3       30.04S
NORTHERLY IS     N/A     70  60  70 SE3         N/A
$$

WIZ051-052-058>065-066-070>072-050600-
SOUTHEAST WISCONSIN

CITY           SKY/WX    TMP DP  RH WIND       PRES   REMARKS
MILWAUKEE      PTCLDY    66  55  67 CALM      30.03R
KENOSHA*       CLEAR     61  56  83 CALM      30.04R
RACINE*        CLEAR     64  56  75 SW6       30.05R
BURLINGTON     CLEAR     55  53  93 CALM      30.04R
WAUKESHA       CLEAR     59  52  77 CALM      30.05R
WEST BEND      CLEAR     59  54  82 CALM      30.04R
$$

INZ001>003-010>013-019-020-050600-
NORTHWEST INDIANA

CITY           SKY/WX    TMP DP  RH WIND       PRES   REMARKS
GARY*          CLEAR     64  62  96 CALM      30.05S
MICHIGAN CITY* NOT AVBL
RENSSELAER*    NOT AVBL
VALPARAISO     PTCLDY    62  58  86 CALM      30.05R
$$

LMZ740>746-050600-
SOUTHERN LAKE MICHIGAN

STATION/POSITION TIME  SKY/WX   TEMP WIND        PRES    VSBY
                                AIR  DIR/SP/G
                 (UTC)          (F)  (DEG/KT/KT) (MB)    (MI)
HARRISON CRIB    0400            72  130/  7/  8   N/A
BURNHAM HARBOR   0500            70  130/  2/  5   N/A
CALUMET HARBOR   0400            73   70/  5/  6   N/A
BURNS HARBOR     0400            71   90/  7/  8 1017.6R
MICHIGAN CITY    0400            69  120/  5/  5   N/A
$$

ABBREVIATIONS USED IN REMARKS
   TC - TEMPERATURE IN CELSIUS
  WCI - WIND CHILL INDEX
   HX - HEAT INDEX
  VSB - VISIBILITY
$$


USA.gov is the U.S. government's official web portal to all federal, state and local government web resources and services.